Theta_e
285 285 283 283 283 284 284 284 284 283 284 286 284 284 283 283 282 281 280 282 284 285 287 288 290 290 290 291 292 293 294 295 294 295 296 296 297 297
283 282 282 282 282 282 282 282 281 281 280 283 282 282 282 280 280 279 280 280 281 283 284 286 287 288 287 288 289 291 291 292 292 293 293 294 295 296
282 281 280 281 281 281 281 280 279 279 278 280 281 281 279 278 278 278 278 278 279 280 282 284 285 284 285 286 287 288 288 288 289 290 291 293 293 294
280 280 279 280 280 280 279 279 278 279 278 276 278 278 277 277 275 276 275 276 276 278 281 282 282 282 282 284 284 284 284 285 286 288 289 291 291 291
279 278 279 279 279 279 278 277 277 278 277 276 275 276 276 275 274 274 274 274 275 276 278 278 278 279 280 281 282 281 281 283 284 286 287 288 288 289
279 278 278 278 278 278 277 276 276 276 275 273 273 272 273 273 273 271 271 272 272 273 275 274 276 276 278 279 278 278 280 282 284 284 284 285 286 287
277 277 277 277 278 277 276 274 274 273 272 271 270 270 270 269 268 269 269 269 270 274 271 272 273 274 275 275 275 277 280 282 282 282 282 284 284 285
275 275 276 276 276 276 276 275 274 271 270 268 268 267 268 268 269 268 267 265 264 272 268 269 273 272 271 273 275 277 279 280 279 280 280 282 283 283
274 274 274 275 275 273 273 272 272 272 272 268 267 267 267 268 268 266 265 264 264 267 267 266 271 268 271 271 274 276 278 277 278 278 279 280 280 281
273 274 273 273 275 271 270 268 268 267 268 268 268 268 268 269 268 266 264 264 264 267 267 263 267 266 268 270 272 275 274 275 275 276 277 277 279 280
273 273 273 272 275 273 269 266 265 264 267 267 268 268 268 268 268 264 261 260 260 263 266 262 265 264 265 267 271 271 272 272 274 274 275 276 277 278
270 271 274 272 273 273 268 265 262 262 263 260 262 263 263 263 265 263 262 259 259 259 264 261 262 262 260 265 266 267 267 270 271 272 273 274 275 274
268 268 270 272 272 271 269 266 265 261 260 259 259 260 260 261 261 261 262 261 259 259 263 262 261 260 259 260 262 264 266 265 266 268 270 272 272 273
267 267 269 270 269 270 267 266 264 260 258 257 257 257 257 258 259 260 260 260 261 260 262 262 259 259 258 257 259 262 263 265 265 266 268 268 270 270
268 269 269 267 264 262 266 263 258 257 256 254 255 256 256 257 258 258 259 259 259 260 262 261 260 260 258 257 257 259 260 262 264 265 265 265 265 267
264 263 265 264 263 258 257 257 256 255 254 253 254 254 256 256 255 256 255 256 255 256 260 260 260 259 257 258 259 257 260 259 263 263 263 264 265 266
254 255 256 256 256 255 254 253 254 254 253 252 252 252 253 253 254 254 254 253 253 254 256 258 259 259 259 258 256 259 261 260 262 261 262 261 263 265
254 255 254 253 255 254 253 253 253 252 252 251 251 251 251 250 251 252 253 252 252 253 254 256 257 257 258 259 264 260 260 259 261 262 261 260 260 264
255 252 254 253 253 253 252 251 252 252 248 249 250 249 249 249 249 250 251 251 251 252 254 256 256 255 252 252 259 263 259 260 261 260 261 261 260 262
251 252 253 251 251 251 251 250 250 250 249 249 249 248 246 246 248 249 250 248 250 251 252 255 256 256 253 253 253 257 265 261 260 260 260 262 264 268
251 250 250 250 250 249 250 248 247 248 248 247 247 246 246 246 248 248 249 248 249 250 251 254 256 257 257 257 255 257 260 265 264 261 261 260 261 262
252 251 250 249 249 249 248 247 247 246 246 246 247 247 246 245 247 247 248 248 249 250 251 254 256 257 256 255 254 255 258 259 264 265 265 265 262 260
252 251 250 249 248 247 246 246 245 248 246 246 246 246 245 246 246 246 247 248 248 248 251 252 255 256 256 255 255 256 256 258 259 258 260 266 267 268
Wind_Speed
9 9 8 7 7 6 6 5 3 2 1 2 3 9 8 8 12 12 11 20 19 22 22 22 21 21 24 24 24 23 22 23 23 23 24 25 25 25
7 9 8 6 7 6 6 5 5 2 3 3 3 8 9 8 11 12 13 18 20 23 23 23 22 24 26 25 25 23 24 24 24 24 24 25 25 25
8 9 9 8 6 6 6 5 5 4 2 2 5 9 10 12 13 12 12 12 12 22 24 22 23 26 27 25 24 24 25 24 24 26 26 25 25 27
7 8 8 6 8 8 6 6 5 4 2 4 7 7 8 10 13 13 12 11 12 17 23 20 25 26 25 23 24 25 24 24 26 26 25 25 27 28
8 8 8 8 8 6 7 5 5 4 4 4 5 6 7 9 11 10 11 12 11 20 15 20 24 23 22 23 25 25 25 27 26 24 25 26 28 28
8 9 8 9 9 8 7 7 6 5 6 5 5 6 5 9 7 9 11 9 12 11 9 18 20 21 20 24 25 24 27 25 25 24 27 29 28 29
8 8 9 10 13 12 7 8 9 6 5 5 6 6 7 10 11 10 11 11 13 3 10 10 11 10 12 19 19 27 26 25 26 30 29 27 28 28
7 7 7 9 11 13 14 14 12 8 8 6 6 8 9 10 10 11 10 11 8 4 13 12 8 9 11 12 27 27 25 29 32 29 29 29 28 30
7 6 6 6 9 8 11 12 12 14 14 7 8 8 9 11 11 12 11 10 10 12 12 9 9 12 11 14 24 22 26 32 29 31 29 31 31 30
7 7 6 8 10 8 7 7 7 8 10 7 7 7 8 9 10 9 10 11 11 7 11 7 12 12 13 10 19 16 31 28 29 31 33 30 30 30
8 8 7 7 11 11 7 7 6 8 9 13 11 10 12 14 13 7 8 9 6 6 6 11 10 16 12 8 6 25 25 26 32 34 30 30 30 31
5 5 9 8 10 13 8 7 7 7 7 8 7 8 10 11 14 9 7 8 7 6 7 11 11 13 12 4 13 12 12 23 34 31 29 29 30 16
4 4 4 9 9 11 11 7 7 5 7 5 5 6 7 8 8 8 8 7 7 5 11 10 9 10 7 14 10 12 13 16 16 17 24 28 34 25
5 4 3 9 9 10 7 9 10 7 4 5 5 6 6 7 8 9 9 8 7 9 11 11 7 11 10 13 11 14 14 13 14 15 15 23 29 30
4 6 8 9 9 7 9 9 8 4 4 4 5 5 5 6 8 7 8 10 9 8 8 10 9 11 11 10 13 15 22 13 13 17 15 16 18 16
7 5 6 7 8 6 4 6 4 4 4 3 3 4 5 5 5 6 5 8 5 8 12 10 10 12 11 11 13 16 13 13 17 16 17 17 16 15
6 2 2 1 2 3 3 2 2 3 3 3 3 4 4 5 5 6 4 5 5 9 9 9 10 12 11 16 14 13 13 14 14 19 19 17 17 16
3 1 1 0 0 1 1 1 0 2 2 2 3 3 4 5 6 6 5 5 6 8 10 10 11 10 9 9 13 10 12 14 16 17 18 17 18 17
2 2 2 3 2 2 2 1 1 0 1 2 3 3 3 4 4 5 6 5 7 8 10 10 9 10 13 14 10 15 14 16 16 16 16 16 19 19
1 3 4 4 3 3 2 2 1 2 2 2 2 2 2 2 3 5 6 5 7 7 9 9 9 9 10 10 12 15 31 16 16 17 16 16 18 31
3 4 4 4 4 4 3 3 3 3 2 2 2 2 2 2 4 4 6 7 8 5 9 10 10 17 10 10 10 13 14 29 25 19 19 16 17 21
3 5 4 4 5 5 4 3 3 3 3 3 3 3 3 3 5 5 5 6 7 7 9 10 11 9 8 10 13 17 15 17 25 30 25 26 19 20
5 5 5 5 5 4 4 4 4 4 3 4 3 3 2 3 3 5 5 6 6 8 9 10 10 9 9 10 13 14 20 19 16 20 17 32 36 35
Wind_Direction
72 71 68 60 54 51 49 34 6 341 330 43 17 26 7 1 1 355 348 347 347 349 349 349 347 347 349 345 343 341 342 339 339 335 334 331 327 323
76 79 75 70 71 64 56 55 50 24 304 359 10 354 356 358 359 352 346 342 345 346 346 345 344 344 343 342 340 340 340 338 336 333 331 327 325 324
75 75 72 64 63 64 63 58 47 37 338 321 327 341 352 353 351 350 351 344 338 338 339 341 341 340 339 340 339 339 338 336 333 331 327 325 325 326
86 79 68 60 58 52 50 50 41 51 9 323 319 348 346 353 345 345 345 341 333 331 334 337 335 335 338 337 336 336 334 331 330 325 323 324 327 323
83 77 66 58 56 56 53 42 26 22 7 341 337 354 341 354 339 345 343 335 327 329 330 336 328 334 334 332 333 331 331 331 327 324 322 327 323 319
85 73 59 50 48 42 46 39 23 18 17 5 347 341 350 349 337 346 339 341 324 324 332 330 323 329 330 331 328 326 328 327 327 328 331 323 319 321
94 83 60 50 48 46 48 39 29 23 11 359 2 351 359 352 355 341 332 331 317 314 334 324 324 325 332 327 320 328 329 329 332 332 323 322 322 318
88 76 72 53 53 51 53 48 50 33 24 9 3 6 360 350 342 341 338 344 340 338 336 319 313 329 323 317 320 323 326 336 332 328 329 321 322 320
76 72 67 49 56 54 52 50 49 38 42 24 9 8 345 346 338 335 339 331 311 313 322 309 332 322 325 312 315 318 337 332 332 329 326 326 320 315
81 75 70 49 55 55 57 48 45 38 32 25 15 359 355 346 346 338 332 317 300 301 360 303 323 323 315 308 304 318 331 332 330 329 326 323 320 317
84 57 73 52 46 55 58 46 40 35 18 18 16 13 10 2 7 349 352 350 336 339 5 334 330 321 318 298 315 331 327 325 331 327 327 325 325 322
93 63 63 64 51 60 57 44 38 21 8 8 13 14 10 2 10 14 355 352 347 316 357 335 336 346 321 292 332 321 320 330 326 327 325 326 326 321
111 89 36 66 50 56 58 48 34 37 14 14 8 9 8 5 1 360 357 349 338 303 324 339 323 332 305 309 319 313 336 320 322 321 322 323 322 320
108 94 63 74 55 59 52 55 45 46 28 21 14 10 5 358 349 345 342 341 324 303 313 338 307 322 307 304 306 324 319 318 317 314 323 315 316 314
123 115 85 74 70 46 58 59 49 39 32 29 11 357 350 338 332 335 333 335 322 314 327 324 319 317 306 290 298 316 318 322 305 325 319 317 313 314
85 73 96 85 81 90 51 47 46 40 30 12 356 336 335 342 340 346 327 340 324 329 329 330 326 317 303 296 302 302 307 313 320 315 316 309 307 305
99 70 58 59 71 65 66 56 59 43 32 2 349 339 340 340 335 341 331 334 331 330 326 325 323 309 289 293 298 295 310 312 314 311 314 310 305 306
77 123 153 195 189 110 51 26 52 17 12 336 318 324 336 337 330 333 335 334 330 327 322 321 324 324 317 298 305 314 313 313 312 314 311 309 305 308
110 174 206 204 212 217 215 204 258 311 310 279 300 322 327 319 328 329 336 334 331 325 316 316 321 332 332 330 297 317 318 317 319 315 316 312 307 307
169 196 213 208 211 219 206 209 243 268 266 280 299 311 305 307 322 329 330 321 324 320 314 319 327 334 326 316 314 300 317 320 324 318 318 309 297 304
210 221 216 206 210 214 218 217 227 250 251 280 274 274 291 293 301 310 314 315 316 321 316 317 318 308 294 292 299 313 315 328 328 326 321 317 324 321
217 224 217 218 216 213 215 214 226 233 242 246 263 273 280 264 288 300 308 318 319 309 295 298 309 318 317 322 313 314 317 323 327 333 329 328 330 325
218 217 217 220 214 214 214 213 225 247 240 245 251 260 265 279 267 282 291 296 294 304 306 311 318 322 317 315 314 314 323 327 333 332 333 338 337 338